Time,TemperatureF,DewpointF,PressureIn,WindDirection,WindDirectionDegrees,WindSpeedMPH,WindSpeedGustMPH,Humidity,HourlyPrecipIn,Conditions,Clouds,dailyrainin,SolarRadiationWatts/m^2,SoftwareType,DateUTC
2013-06-09 00:01:00,63.0,57.0,-100.00,NNE,19,12.0,23.0,80,0.00,,,0.00,0.000000,,2013-06-09 10:01:00,
2013-06-09 00:23:00,63.0,57.0,-100.00,NNE,19,12.0,23.0,80,0.00,,,0.00,0.000000,,2013-06-09 10:23:00,
2013-06-09 00:32:00,63.0,57.0,-100.00,NNE,19,12.0,23.0,80,0.00,,,0.00,0.000000,,2013-06-09 10:32:00,
2013-06-09 00:43:00,63.0,57.0,-100.00,NNE,19,12.0,23.0,80,0.00,,,0.00,0.000000,,2013-06-09 10:43:00,
2013-06-09 00:52:00,63.0,57.0,-100.00,NNE,19,12.0,23.0,80,0.00,,,0.00,0.000000,,2013-06-09 10:52:00,
2013-06-09 01:01:00,63.0,57.0,-100.00,North,10,14.0,24.0,80,0.00,,,0.00,0.000000,,2013-06-09 11:01:00,
2013-06-09 01:22:00,63.0,57.0,-100.00,North,10,14.0,24.0,80,0.00,,,0.00,0.000000,,2013-06-09 11:22:00,
2013-06-09 01:32:00,63.0,57.0,-100.00,North,10,14.0,24.0,80,0.00,,,0.00,0.000000,,2013-06-09 11:32:00,
2013-06-09 01:42:00,63.0,57.0,-100.00,North,10,14.0,24.0,80,0.00,,,0.00,0.000000,,2013-06-09 11:42:00,
2013-06-09 01:52:00,63.0,57.0,-100.00,North,10,14.0,24.0,80,0.00,,,0.00,0.000000,,2013-06-09 11:52:00,
2013-06-09 02:01:00,63.0,57.0,-100.00,NNE,12,12.0,24.0,82,0.00,,,0.00,0.000000,,2013-06-09 12:01:00,
2013-06-09 02:22:00,63.0,57.0,-100.00,NNE,12,12.0,24.0,82,0.00,,,0.00,0.000000,,2013-06-09 12:22:00,
2013-06-09 02:32:00,63.0,57.0,-100.00,NNE,12,12.0,24.0,82,0.00,,,0.00,0.000000,,2013-06-09 12:32:00,
2013-06-09 02:42:00,63.0,57.0,-100.00,NNE,12,12.0,24.0,82,0.00,,,0.00,0.000000,,2013-06-09 12:42:00,
2013-06-09 02:52:00,63.0,57.0,-100.00,NNE,12,12.0,24.0,82,0.00,,,0.00,0.000000,,2013-06-09 12:52:00,
2013-06-09 03:01:00,62.0,57.0,-100.00,North,3,4.0,18.0,83,0.00,,,0.00,0.000000,,2013-06-09 13:01:00,
2013-06-09 03:22:00,62.0,57.0,-100.00,North,3,4.0,18.0,83,0.00,,,0.00,0.000000,,2013-06-09 13:22:00,
2013-06-09 03:32:00,62.0,57.0,-100.00,North,3,4.0,18.0,83,0.00,,,0.00,0.000000,,2013-06-09 13:32:00,
2013-06-09 03:42:00,62.0,57.0,-100.00,North,3,4.0,18.0,83,0.00,,,0.00,0.000000,,2013-06-09 13:42:00,
2013-06-09 03:52:00,62.0,57.0,-100.00,North,3,4.0,18.0,83,0.00,,,0.00,0.000000,,2013-06-09 13:52:00,
2013-06-09 04:01:00,62.0,57.0,-100.00,North,349,12.0,16.0,85,0.00,,,0.00,0.000000,,2013-06-09 14:01:00,
2013-06-09 04:22:00,62.0,57.0,-100.00,North,349,12.0,16.0,85,0.00,,,0.00,0.000000,,2013-06-09 14:22:00,
2013-06-09 04:32:00,62.0,57.0,-100.00,North,349,12.0,16.0,85,0.00,,,0.00,0.000000,,2013-06-09 14:32:00,
2013-06-09 04:43:00,62.0,57.0,-100.00,North,349,12.0,16.0,85,0.00,,,0.00,0.000000,,2013-06-09 14:43:00,
2013-06-09 04:52:00,62.0,57.0,-100.00,North,349,12.0,16.0,85,0.00,,,0.00,0.000000,,2013-06-09 14:52:00,
2013-06-09 05:01:00,62.0,59.0,-100.00,NE,36,7.0,16.0,89,0.00,,,-99.99,0.000000,,2013-06-09 15:01:00,
2013-06-09 05:22:00,62.0,59.0,-100.00,NE,36,7.0,16.0,89,0.00,,,-99.99,0.000000,,2013-06-09 15:22:00,
2013-06-09 05:33:00,62.0,59.0,-100.00,NE,36,7.0,16.0,89,0.00,,,-99.99,0.000000,,2013-06-09 15:33:00,
2013-06-09 05:43:00,62.0,59.0,-100.00,NE,36,7.0,16.0,89,0.00,,,-99.99,0.000000,,2013-06-09 15:43:00,
2013-06-09 05:53:00,62.0,59.0,-100.00,NE,36,7.0,16.0,89,0.00,,,-99.99,0.000000,,2013-06-09 15:53:00,
2013-06-09 06:01:00,62.0,57.0,-100.00,NE,35,7.0,15.0,85,0.00,,,-99.99,3.000000,,2013-06-09 16:01:00,
2013-06-09 06:23:00,62.0,57.0,-100.00,NE,35,7.0,15.0,85,0.00,,,-99.99,3.000000,,2013-06-09 16:23:00,
2013-06-09 06:33:00,62.0,57.0,-100.00,NE,35,7.0,15.0,85,0.00,,,-99.99,3.000000,,2013-06-09 16:33:00,
2013-06-09 06:42:00,62.0,57.0,-100.00,NE,35,7.0,15.0,85,0.00,,,-99.99,3.000000,,2013-06-09 16:42:00,
2013-06-09 06:53:00,62.0,57.0,-100.00,NE,35,7.0,15.0,85,0.00,,,-99.99,3.000000,,2013-06-09 16:53:00,
2013-06-09 07:01:00,65.0,58.0,-100.00,NNE,21,16.0,25.0,79,0.00,,,0.00,129.000000,,2013-06-09 17:01:00,
2013-06-09 07:22:00,65.0,58.0,-100.00,NNE,21,16.0,25.0,79,0.00,,,0.00,129.000000,,2013-06-09 17:22:00,
2013-06-09 07:32:00,65.0,58.0,-100.00,NNE,21,16.0,25.0,79,0.00,,,0.00,129.000000,,2013-06-09 17:32:00,
2013-06-09 07:42:00,65.0,58.0,-100.00,NNE,21,16.0,25.0,79,0.00,,,0.00,129.000000,,2013-06-09 17:42:00,
2013-06-09 07:52:00,65.0,58.0,-100.00,NNE,21,16.0,25.0,79,0.00,,,0.00,129.000000,,2013-06-09 17:52:00,
2013-06-09 08:01:00,68.0,59.0,-100.00,NNE,14,17.0,26.0,72,0.00,,,0.00,189.000000,,2013-06-09 18:01:00,
2013-06-09 08:22:00,68.0,59.0,-100.00,NNE,14,17.0,26.0,72,0.00,,,0.00,189.000000,,2013-06-09 18:22:00,
2013-06-09 08:33:00,68.0,59.0,-100.00,NNE,14,17.0,26.0,72,0.00,,,0.00,189.000000,,2013-06-09 18:33:00,
2013-06-09 08:42:00,68.0,59.0,-100.00,NNE,14,17.0,26.0,72,0.00,,,0.00,189.000000,,2013-06-09 18:42:00,
2013-06-09 08:52:00,68.0,59.0,-100.00,NNE,14,17.0,26.0,72,0.00,,,0.00,189.000000,,2013-06-09 18:52:00,
2013-06-09 09:01:00,73.0,58.0,-100.00,NNE,19,13.0,24.0,60,0.00,,,0.00,449.000000,,2013-06-09 19:01:00,
2013-06-09 09:22:00,73.0,58.0,-100.00,NNE,19,13.0,24.0,60,0.00,,,0.00,449.000000,,2013-06-09 19:22:00,
2013-06-09 09:32:00,73.0,58.0,-100.00,NNE,19,13.0,24.0,60,0.00,,,0.00,449.000000,,2013-06-09 19:32:00,
2013-06-09 09:42:00,73.0,58.0,-100.00,NNE,19,13.0,24.0,60,0.00,,,0.00,449.000000,,2013-06-09 19:42:00,
2013-06-09 09:52:00,73.0,58.0,-100.00,NNE,19,13.0,24.0,60,0.00,,,0.00,449.000000,,2013-06-09 19:52:00,
2013-06-09 10:01:00,75.0,58.0,-100.00,NNE,22,15.0,23.0,56,0.00,,,0.00,540.000000,,2013-06-09 20:01:00,
2013-06-09 10:22:00,75.0,58.0,-100.00,NNE,22,15.0,23.0,56,0.00,,,0.00,540.000000,,2013-06-09 20:22:00,
2013-06-09 10:32:00,75.0,58.0,-100.00,NNE,22,15.0,23.0,56,0.00,,,0.00,540.000000,,2013-06-09 20:32:00,
2013-06-09 10:42:00,75.0,58.0,-100.00,NNE,22,15.0,23.0,56,0.00,,,0.00,540.000000,,2013-06-09 20:42:00,
2013-06-09 10:52:00,75.0,58.0,-100.00,NNE,22,15.0,23.0,56,0.00,,,0.00,540.000000,,2013-06-09 20:52:00,
2013-06-09 11:01:00,78.0,57.0,-100.00,NNE,28,14.0,24.0,49,0.00,,,0.00,871.000000,,2013-06-09 21:01:00,
2013-06-09 11:22:00,78.0,57.0,-100.00,NNE,28,14.0,24.0,49,0.00,,,0.00,871.000000,,2013-06-09 21:22:00,
2013-06-09 11:33:00,78.0,57.0,-100.00,NNE,28,14.0,24.0,49,0.00,,,0.00,871.000000,,2013-06-09 21:33:00,
2013-06-09 11:43:00,78.0,57.0,-100.00,NNE,28,14.0,24.0,49,0.00,,,0.00,871.000000,,2013-06-09 21:43:00,
2013-06-09 11:53:00,78.0,57.0,-100.00,NNE,28,14.0,24.0,49,0.00,,,0.00,871.000000,,2013-06-09 21:53:00,
2013-06-09 12:01:00,76.0,58.0,-100.00,NE,39,19.0,27.0,53,0.00,,,0.00,941.000000,,2013-06-09 22:01:00,
2013-06-09 12:23:00,76.0,58.0,-100.00,NE,39,19.0,27.0,53,0.00,,,0.00,941.000000,,2013-06-09 22:23:00,
2013-06-09 12:33:00,76.0,58.0,-100.00,NE,39,19.0,27.0,53,0.00,,,0.00,941.000000,,2013-06-09 22:33:00,
2013-06-09 12:42:00,76.0,58.0,-100.00,NE,39,19.0,27.0,53,0.00,,,0.00,941.000000,,2013-06-09 22:42:00,
2013-06-09 12:52:00,76.0,58.0,-100.00,NE,39,19.0,27.0,53,0.00,,,0.00,941.000000,,2013-06-09 22:52:00,
2013-06-09 13:01:00,77.0,57.0,-100.00,NE,36,20.0,28.0,51,0.00,,,0.00,919.000000,,2013-06-09 23:01:00,
2013-06-09 13:22:00,77.0,57.0,-100.00,NE,36,20.0,28.0,51,0.00,,,0.00,919.000000,,2013-06-09 23:22:00,
2013-06-09 13:32:00,77.0,57.0,-100.00,NE,36,20.0,28.0,51,0.00,,,0.00,919.000000,,2013-06-09 23:32:00,
2013-06-09 13:43:00,77.0,57.0,-100.00,NE,36,20.0,28.0,51,0.00,,,0.00,919.000000,,2013-06-09 23:43:00,
2013-06-09 13:52:00,77.0,57.0,-100.00,NE,36,20.0,28.0,51,0.00,,,0.00,919.000000,,2013-06-09 23:52:00,
2013-06-09 14:01:00,76.0,58.0,-100.00,NE,36,19.0,29.0,53,0.00,,,0.00,862.000000,,2013-06-10 00:01:00,
2013-06-09 14:22:00,76.0,58.0,-100.00,NE,36,19.0,29.0,53,0.00,,,0.00,862.000000,,2013-06-10 00:22:00,
2013-06-09 14:32:00,76.0,58.0,-100.00,NE,36,19.0,29.0,53,0.00,,,0.00,862.000000,,2013-06-10 00:32:00,
2013-06-09 14:42:00,76.0,58.0,-100.00,NE,36,19.0,29.0,53,0.00,,,0.00,862.000000,,2013-06-10 00:42:00,
2013-06-09 14:52:00,76.0,58.0,-100.00,NE,36,19.0,29.0,53,0.00,,,0.00,862.000000,,2013-06-10 00:52:00,
2013-06-09 15:01:00,76.0,59.0,-100.00,NNE,32,18.0,28.0,56,0.00,,,0.00,768.000000,,2013-06-10 01:01:00,
2013-06-09 15:22:00,76.0,59.0,-100.00,NNE,32,18.0,28.0,56,0.00,,,0.00,768.000000,,2013-06-10 01:22:00,
2013-06-09 15:32:00,76.0,59.0,-100.00,NNE,32,18.0,28.0,56,0.00,,,0.00,768.000000,,2013-06-10 01:32:00,
2013-06-09 15:43:00,76.0,59.0,-100.00,NNE,32,18.0,28.0,56,0.00,,,0.00,768.000000,,2013-06-10 01:43:00,
2013-06-09 15:52:00,76.0,59.0,-100.00,NNE,32,18.0,28.0,56,0.00,,,0.00,768.000000,,2013-06-10 01:52:00,
2013-06-09 16:01:00,74.0,59.0,-100.00,NNE,27,18.0,27.0,60,0.00,,,0.00,592.000000,,2013-06-10 02:01:00,
2013-06-09 16:22:00,74.0,59.0,-100.00,NNE,27,18.0,27.0,60,0.00,,,0.00,592.000000,,2013-06-10 02:22:00,
2013-06-09 16:32:00,74.0,59.0,-100.00,NNE,27,18.0,27.0,60,0.00,,,0.00,592.000000,,2013-06-10 02:32:00,
2013-06-09 16:42:00,74.0,59.0,-100.00,NNE,27,18.0,27.0,60,0.00,,,0.00,592.000000,,2013-06-10 02:42:00,
2013-06-09 16:52:00,74.0,59.0,-100.00,NNE,27,18.0,27.0,60,0.00,,,0.00,592.000000,,2013-06-10 02:52:00,
2013-06-09 17:01:00,72.0,60.0,-100.00,NNE,27,18.0,27.0,65,0.00,,,0.00,453.000000,,2013-06-10 03:01:00,
2013-06-09 17:22:00,72.0,60.0,-100.00,NNE,27,18.0,27.0,65,0.00,,,0.00,453.000000,,2013-06-10 03:22:00,
2013-06-09 17:33:00,72.0,60.0,-100.00,NNE,27,18.0,27.0,65,0.00,,,0.00,453.000000,,2013-06-10 03:33:00,
2013-06-09 17:43:00,72.0,60.0,-100.00,NNE,27,18.0,27.0,65,0.00,,,0.00,453.000000,,2013-06-10 03:43:00,
2013-06-09 17:53:00,72.0,60.0,-100.00,NNE,27,18.0,27.0,65,0.00,,,0.00,453.000000,,2013-06-10 03:53:00,
2013-06-09 18:01:00,69.0,58.0,-100.00,NNE,19,19.0,27.0,68,0.00,,,0.00,228.000000,,2013-06-10 04:01:00,
2013-06-09 18:23:00,69.0,58.0,-100.00,NNE,19,19.0,27.0,68,0.00,,,0.00,228.000000,,2013-06-10 04:23:00,
2013-06-09 18:33:00,69.0,58.0,-100.00,NNE,19,19.0,27.0,68,0.00,,,0.00,228.000000,,2013-06-10 04:33:00,
2013-06-09 18:42:00,69.0,58.0,-100.00,NNE,19,19.0,27.0,68,0.00,,,0.00,228.000000,,2013-06-10 04:42:00,
2013-06-09 18:52:00,69.0,58.0,-100.00,NNE,19,19.0,27.0,68,0.00,,,0.00,228.000000,,2013-06-10 04:52:00,
2013-06-09 19:01:00,66.0,58.0,-100.00,North,10,18.0,26.0,75,0.00,,,0.00,49.000000,,2013-06-10 05:01:00,
2013-06-09 19:22:00,66.0,58.0,-100.00,North,10,18.0,26.0,75,0.00,,,0.00,49.000000,,2013-06-10 05:22:00,
2013-06-09 19:32:00,66.0,58.0,-100.00,North,10,18.0,26.0,75,0.00,,,0.00,49.000000,,2013-06-10 05:32:00,
2013-06-09 19:42:00,66.0,58.0,-100.00,North,10,18.0,26.0,75,0.00,,,0.00,49.000000,,2013-06-10 05:42:00,
2013-06-09 19:52:00,66.0,58.0,-100.00,North,10,18.0,26.0,75,0.00,,,0.00,49.000000,,2013-06-10 05:52:00,
2013-06-09 20:01:00,65.0,58.0,-100.00,North,5,16.0,26.0,78,0.00,,,0.00,1.000000,,2013-06-10 06:01:00,
2013-06-09 20:22:00,65.0,58.0,-100.00,North,5,16.0,26.0,78,0.00,,,0.00,1.000000,,2013-06-10 06:22:00,
2013-06-09 20:32:00,65.0,58.0,-100.00,North,5,16.0,26.0,78,0.00,,,0.00,1.000000,,2013-06-10 06:32:00,
2013-06-09 20:42:00,65.0,58.0,-100.00,North,5,16.0,26.0,78,0.00,,,0.00,1.000000,,2013-06-10 06:42:00,
2013-06-09 20:52:00,65.0,58.0,-100.00,North,5,16.0,26.0,78,0.00,,,0.00,1.000000,,2013-06-10 06:52:00,
2013-06-09 21:01:00,65.0,56.0,-100.00,North,7,13.0,25.0,73,0.00,,,0.00,0.000000,,2013-06-10 07:01:00,
2013-06-09 21:22:00,65.0,56.0,-100.00,North,7,13.0,25.0,73,0.00,,,0.00,0.000000,,2013-06-10 07:22:00,
2013-06-09 21:32:00,65.0,56.0,-100.00,North,7,13.0,25.0,73,0.00,,,0.00,0.000000,,2013-06-10 07:32:00,
2013-06-09 21:42:00,65.0,56.0,-100.00,North,7,13.0,25.0,73,0.00,,,0.00,0.000000,,2013-06-10 07:42:00,
2013-06-09 21:52:00,65.0,56.0,-100.00,North,7,13.0,25.0,73,0.00,,,0.00,0.000000,,2013-06-10 07:52:00,
2013-06-09 22:01:00,65.0,55.0,-100.00,NNE,13,16.0,23.0,70,0.00,,,0.00,0.000000,,2013-06-10 08:01:00,
2013-06-09 22:22:00,65.0,55.0,-100.00,NNE,13,16.0,23.0,70,0.00,,,0.00,0.000000,,2013-06-10 08:22:00,
2013-06-09 22:32:00,65.0,55.0,-100.00,NNE,13,16.0,23.0,70,0.00,,,0.00,0.000000,,2013-06-10 08:32:00,
2013-06-09 22:42:00,65.0,55.0,-100.00,NNE,13,16.0,23.0,70,0.00,,,0.00,0.000000,,2013-06-10 08:42:00,
2013-06-09 22:52:00,65.0,55.0,-100.00,NNE,13,16.0,23.0,70,0.00,,,0.00,0.000000,,2013-06-10 08:52:00,
2013-06-09 23:01:00,65.0,55.0,-100.00,NNE,13,13.0,25.0,70,0.00,,,0.00,0.000000,,2013-06-10 09:01:00,
2013-06-09 23:22:00,65.0,55.0,-100.00,NNE,13,13.0,25.0,70,0.00,,,0.00,0.000000,,2013-06-10 09:22:00,
2013-06-09 23:32:00,65.0,55.0,-100.00,NNE,13,13.0,25.0,70,0.00,,,0.00,0.000000,,2013-06-10 09:32:00,
2013-06-09 23:43:00,65.0,55.0,-100.00,NNE,13,13.0,25.0,70,0.00,,,0.00,0.000000,,2013-06-10 09:43:00,
2013-06-09 23:53:00,65.0,55.0,-100.00,NNE,13,13.0,25.0,70,0.00,,,0.00,0.000000,,2013-06-10 09:53:00,